Temperature
19 19 19 20 19 20 22 26 27 26 27 27 26 27 26 25 24 22 22 21 21 21 22 22 22 21 21 20 20 19 19 19 18 18 17 17 16 16 16 16 16 16 16 16 16 16 16 16 16
20 19 20 20 20 21 24 26 27 26 26 26 26 26 27 26 25 23 22 22 22 21 21 21 21 21 21 21 20 20 19 19 18 18 18 17 17 16 16 16 16 16 16 16 16 16 16 16 16
20 20 20 20 21 23 24 25 25 26 26 26 27 26 26 25 24 23 22 22 22 21 21 21 21 21 21 21 20 20 20 19 19 18 18 17 17 16 16 16 16 16 16 16 16 16 16 16 16
19 20 21 21 22 25 25 25 25 26 26 26 26 27 25 25 24 23 22 22 22 21 21 21 20 20 20 20 20 20 20 19 19 18 18 17 17 17 16 16 16 16 16 16 16 16 16 16 16
19 20 21 21 23 26 26 26 26 25 26 27 26 26 25 24 23 22 22 22 22 21 21 20 20 20 20 20 20 19 19 19 19 19 18 17 16 16 16 16 16 16 16 16 16 16 16 16 16
20 22 20 21 24 26 27 26 26 26 26 27 26 26 24 23 23 23 22 21 21 21 20 20 20 20 20 20 19 19 19 19 18 18 18 17 16 16 16 16 16 16 16 16 16 16 16 16 16
20 20 20 22 23 25 25 25 25 24 24 25 25 25 24 22 22 22 22 21 21 20 20 19 19 19 19 19 18 18 18 18 18 18 18 17 17 16 16 16 16 16 16 16 16 16 16 16 16
20 20 21 23 24 24 25 25 25 24 24 24 24 24 23 22 22 21 21 21 20 20 19 19 19 19 18 18 18 17 17 17 17 17 17 17 17 17 16 16 16 16 16 16 16 16 16 15 16
19 19 20 22 22 23 24 24 24 24 24 24 25 24 23 23 22 21 21 20 20 20 19 19 19 18 18 17 17 16 16 16 16 16 16 16 16 16 16 15 15 15 16 16 16 16 16 16 16
20 19 22 23 23 22 23 23 23 24 24 24 24 24 22 22 21 21 21 21 21 20 19 18 18 18 18 17 17 16 15 15 15 15 15 15 15 15 14 14 14 14 15 15 16 16 16 16 16
22 21 22 23 23 22 22 22 23 23 22 23 23 22 22 21 21 21 21 21 21 19 19 18 17 17 17 17 16 16 16 15 15 15 15 15 14 14 14 14 14 14 14 15 16 17 17 17 16
22 22 23 23 22 22 21 22 22 22 22 22 21 21 21 21 21 21 21 21 20 19 18 17 16 16 16 16 16 16 16 15 15 15 15 15 14 14 14 14 14 14 14 14 14 15 16 16 16
22 22 23 23 22 22 22 21 22 22 22 21 21 20 19 19 19 19 20 19 19 18 17 16 16 15 15 15 15 15 15 15 15 15 15 14 14 14 14 14 13 13 13 13 13 13 14 15 15
22 21 22 22 22 22 21 21 22 21 21 20 19 17 16 16 17 17 18 18 18 18 17 16 16 15 15 15 15 15 15 15 15 14 14 14 14 14 14 13 13 13 13 13 13 13 13 14 14
21 20 21 22 22 21 20 19 20 20 19 18 17 16 15 14 14 15 16 16 17 16 16 16 15 15 14 14 14 15 15 15 15 14 14 14 14 13 13 13 13 13 13 12 12 12 13 13 14
21 20 20 21 22 21 20 19 19 19 18 17 16 15 14 13 13 13 13 14 15 15 15 15 14 14 14 14 14 14 14 14 14 14 14 14 13 13 13 12 12 12 12 12 12 12 12 13 13
21 20 21 21 21 21 20 19 18 18 17 16 15 14 13 12 11 11 12 12 13 13 13 13 13 13 13 13 13 13 13 13 13 13 13 13 13 13 12 12 12 12 12 12 12 12 12 12 13
18 19 20 20 20 19 19 18 17 17 16 14 13 13 12 11 10 10 10 11 11 12 12 12 12 12 12 12 12 12 13 13 13 13 13 12 12 12 12 12 12 12 12 12 12 12 12 12 12
19 19 19 20 20 19 18 18 16 15 14 13 12 12 11 11 10 9 9 9 10 10 11 11 12 12 12 12 12 12 12 12 12 12 12 12 12 11 11 11 11 11 11 11 11 11 11 11 11
19 18 19 19 19 18 17 17 15 13 13 12 12 11 10 10 10 9 9 8 8 8 8 8 9 10 10 10 11 11 11 11 11 11 12 12 11 11 11 11 11 11 11 11 11 10 10 10 11
18 17 16 16 17 18 17 16 13 13 12 12 11 10 10 10 9 9 8 8 8 7 7 7 7 7 8 8 9 9 10 10 10 11 11 11 11 10 10 10 10 10 10 10 10 10 10 10 10
16 17 16 16 15 15 17 15 12 12 11 11 11 10 10 9 9 9 8 8 7 7 6 6 6 6 7 7 7 8 8 9 9 10 10 11 10 10 9 9 9 10 10 9 9 9 9 9 9
16 16 15 15 15 14 15 15 14 12 11 10 10 10 10 9 9 8 8 7 7 7 6 6 6 6 6 6 6 7 7 8 8 9 10 10 10 10 9 9 9 9 9 9 9 9 9 9 9
16 16 16 16 15 14 16 15 13 11 10 10 10 10 9 9 8 8 8 7 7 6 6 6 6 5 5 5 5 5 6 7 7 8 9 9 10 9 9 9 8 8 8 8 8 8 8 8 8
15 14 14 15 14 15 16 16 11 10 10 10 10 10 9 8 8 8 7 7 7 6 6 6 5 5 5 4 4 4 4 5 6 7 8 9 9 9 9 8 8 8 8 8 8 8 7 7 7
14 14 12 12 13 14 15 13 8 11 11 11 10 9 8 8 7 7 7 6 6 6 5 5 5 5 4 3 3 3 3 3 5 6 7 8 8 8 8 8 7 7 7 7 7 7 7 7 7
13 13 14 12 12 12 14 8 10 11 10 10 9 8 8 7 7 6 6 5 5 5 4 4 4 4 3 2 2 1 1 2 3 4 6 6 7 7 6 6 6 6 6 6 6 6 6 6 6
14 13 12 12 11 11 12 13 9 10 8 8 8 7 7 6 6 5 5 4 4 3 3 3 3 3 2 2 1 0 0 0 1 2 3 4 5 5 5 5 4 5 5 5 5 5 6 6 6
12 13 13 12 11 10 10 11 10 8 7 7 7 6 6 5 5 4 4 3 2 2 1 1 1 1 1 1 0 -0 -1 -1 -1 0 1 2 3 3 4 3 3 3 3 4 4 4 4 5 5
12 12 11 9 10 9 8 9 10 8 7 7 6 6 5 4 4 3 2 1 1 0 0 0 0 0 -0 -0 -1 -1 -2 -2 -2 -1 -0 0 1 1 1 1 1 1 2 2 3 3 3 3 3
Wind_Speed
13 14 9 3 4 5 8 2 6 7 5 9 8 5 6 9 8 5 5 6 7 10 14 13 12 11 9 8 7 6 5 4 2 2 2 1 1 3 3 4 5 5 5 5 5 5 4 5 5
11 11 6 4 4 6 5 6 3 8 8 4 1 4 4 7 9 9 6 7 4 7 13 14 14 11 9 8 8 7 6 5 4 3 3 3 2 2 3 3 4 5 5 5 5 4 4 5 5
9 11 5 4 6 5 7 8 9 7 4 1 1 2 4 6 7 6 6 5 4 8 11 16 17 12 10 9 9 8 7 6 5 5 4 4 2 2 3 3 2 2 3 3 2 3 4 4 5
7 5 4 5 12 5 6 7 8 5 4 1 5 3 7 7 5 7 6 3 4 8 13 17 17 13 11 10 9 9 8 8 7 7 6 5 4 2 2 3 2 1 1 2 2 3 4 5 5
5 4 6 8 12 3 4 8 4 7 3 3 2 7 6 6 10 9 7 3 4 5 12 16 15 13 11 10 10 9 9 9 9 8 6 6 6 4 2 2 0 1 1 1 2 3 5 6 6
4 4 6 7 6 3 3 6 4 6 7 2 2 5 6 8 10 8 5 0 2 6 7 14 15 13 11 10 10 9 9 9 9 9 7 5 5 5 5 4 3 2 2 1 1 2 4 6 7
5 5 8 10 7 5 5 8 7 10 10 9 8 7 5 9 8 5 5 2 6 7 3 5 11 13 13 12 12 11 10 10 9 9 8 6 4 4 5 3 4 4 4 3 1 2 4 6 7
4 4 8 6 4 5 8 5 3 6 8 5 4 6 5 6 5 4 5 3 5 4 3 4 2 10 13 14 15 14 11 10 9 9 9 7 5 6 7 7 8 8 6 4 2 1 3 5 7
4 4 6 6 7 7 8 7 8 4 6 7 3 5 6 8 5 1 2 5 7 6 3 3 6 5 1 6 14 14 12 11 10 9 11 9 8 10 13 16 13 10 8 6 6 6 6 6 8
4 4 5 6 7 8 10 9 9 7 8 10 8 6 8 4 2 4 6 6 4 6 7 6 7 7 6 5 5 7 9 11 11 11 13 12 11 11 5 9 11 10 9 10 12 13 11 10 9
6 6 7 7 5 6 8 10 9 9 9 9 10 11 9 7 5 5 5 5 6 9 9 7 6 6 6 3 2 1 2 3 8 11 8 10 9 6 4 5 8 10 11 10 12 13 11 10 10
6 9 9 7 6 6 8 8 9 9 8 8 10 10 9 10 10 9 6 7 8 9 9 7 6 5 6 5 2 0 1 1 1 2 3 3 2 3 2 2 3 4 5 6 6 4 8 10 12
8 8 7 6 6 7 7 9 9 6 7 10 10 11 12 14 13 12 10 10 9 7 8 7 4 5 6 4 3 2 3 2 2 0 2 3 1 3 3 2 2 2 4 2 4 5 7 8 9
8 10 11 11 8 4 7 10 5 5 11 13 16 19 20 20 18 16 13 10 10 8 8 7 8 8 6 5 5 4 3 2 3 2 2 5 2 2 2 2 3 3 3 4 3 6 6 7 6
6 10 11 5 2 4 5 7 7 10 14 16 17 17 19 20 20 18 17 14 13 11 10 9 8 9 9 7 6 5 3 4 3 3 5 6 4 3 3 3 4 4 5 5 4 6 6 6 4
10 8 4 6 3 3 4 4 11 11 15 15 14 14 16 18 19 18 20 18 17 15 13 11 8 7 9 8 6 6 4 4 3 4 4 7 8 4 3 3 4 5 4 3 4 5 5 5 4
4 6 8 4 5 5 5 4 9 11 15 14 13 13 14 16 19 20 21 20 20 20 18 16 13 9 8 8 6 6 5 5 3 4 4 5 6 6 2 3 4 4 4 3 4 4 4 4 5
10 10 9 9 5 7 6 4 9 12 15 13 13 13 13 16 17 16 18 19 19 20 20 19 17 15 13 8 6 5 6 5 4 4 4 6 5 6 3 4 5 4 3 3 4 5 3 3 3
8 9 11 8 6 6 6 4 9 12 13 12 12 12 13 13 13 14 15 15 15 17 18 18 17 17 14 11 9 7 6 6 6 5 5 5 5 6 4 3 4 3 2 3 3 2 2 1 1
9 10 9 7 11 12 9 0 11 13 13 11 11 11 11 11 12 13 13 13 13 13 14 15 15 15 14 12 11 9 8 6 5 5 5 5 6 6 4 3 3 4 1 2 3 2 1 1 0
10 7 7 9 12 10 7 3 11 12 12 10 10 9 10 12 11 11 12 12 11 11 11 13 12 13 14 15 12 11 9 7 5 6 6 6 6 6 4 3 3 4 1 1 1 2 1 1 2
7 9 10 11 9 5 6 2 9 11 10 9 9 9 9 9 9 9 10 11 10 9 8 9 11 12 13 14 15 17 13 11 9 7 7 8 8 7 5 4 4 4 2 2 2 2 1 1 1
7 11 16 15 10 8 7 6 7 11 9 9 9 9 9 9 9 10 9 9 9 8 8 8 10 11 12 15 16 17 15 13 10 9 8 6 5 6 5 4 3 4 2 2 1 1 1 1 0
8 13 17 8 1 4 3 4 5 5 8 8 9 9 10 10 10 10 9 9 9 9 9 10 10 10 11 14 16 17 19 18 15 12 9 6 4 5 6 4 2 3 3 2 1 1 1 1 0
10 8 6 5 1 2 5 3 7 7 8 9 9 10 10 11 11 11 12 12 12 13 13 12 11 10 10 12 14 18 20 20 17 12 8 6 4 2 4 4 3 2 2 1 1 1 1 1 1
8 6 5 5 6 10 9 1 8 7 7 9 10 10 11 12 12 13 14 14 14 14 14 15 13 9 9 10 13 16 19 17 14 11 6 3 3 4 5 3 2 2 2 2 2 1 1 2 2
7 6 3 4 8 7 2 6 5 4 8 12 13 14 14 15 15 16 16 15 16 16 15 16 14 10 9 10 12 14 17 19 19 16 7 2 3 4 7 7 6 5 5 4 3 1 2 2 2
3 4 5 4 5 6 8 2 5 6 11 13 14 15 15 15 15 15 15 16 16 16 15 17 14 12 9 10 11 15 15 17 18 16 13 6 4 4 5 5 6 6 5 5 4 2 2 3 2
5 4 4 4 5 5 6 2 8 11 12 13 14 15 16 17 17 16 15 16 17 17 16 16 14 12 10 10 12 13 14 16 17 15 14 9 6 5 4 3 3 4 4 4 3 3 3 3 3
0 4 5 5 7 6 7 3 11 12 12 13 15 18 19 19 17 16 18 19 18 18 17 15 14 12 10 10 12 13 15 15 15 15 14 12 9 7 5 3 2 2 2 2 2 2 3 3 3
Wind_Direction
293 270 262 273 259 234 253 69 72 78 53 47 37 349 344 40 42 87 169 86 87 106 126 152 164 173 178 183 189 192 190 189 195 224 251 278 278 262 274 254 240 231 230 236 248 261 261 252 242
292 292 297 252 256 262 229 106 98 71 62 40 53 309 324 80 80 111 126 81 77 108 136 154 162 173 181 187 193 197 201 206 217 239 251 256 292 301 302 302 259 236 232 242 254 263 262 255 240
272 277 278 260 259 298 38 60 59 55 73 319 302 88 25 56 70 90 89 112 179 125 113 139 155 168 181 192 198 202 208 212 224 245 257 244 261 314 333 342 320 233 221 232 254 258 253 253 241
278 274 239 250 277 341 17 55 43 323 136 162 319 310 111 76 63 83 100 140 217 141 123 138 153 165 182 194 201 206 214 217 226 239 253 249 241 270 340 5 18 76 139 193 233 245 247 247 240
248 266 255 260 266 311 13 43 20 292 267 152 32 319 84 95 96 89 90 40 335 67 115 139 153 167 184 196 204 209 216 222 231 236 253 250 227 233 269 318 301 120 120 187 243 249 245 242 235
261 263 274 276 299 51 29 57 321 294 308 12 106 317 92 121 104 88 91 201 71 67 102 141 158 170 185 200 210 216 221 226 233 235 245 252 235 233 241 250 221 187 162 128 296 267 257 246 238
280 280 278 294 325 341 38 29 356 354 341 19 16 335 88 89 94 128 119 50 59 52 58 133 163 176 188 198 207 213 220 229 237 236 239 249 259 252 240 226 202 185 163 137 73 327 284 257 241
317 288 270 272 343 14 48 7 28 13 331 347 6 324 64 100 113 93 83 60 62 55 34 7 220 180 183 196 203 202 208 221 237 241 238 237 234 240 235 220 205 189 172 166 180 282 310 286 252
280 264 290 357 12 2 31 4 349 338 275 285 240 253 105 98 77 61 230 199 181 171 143 86 354 15 15 196 183 192 202 215 228 237 234 228 234 242 231 224 210 190 193 207 224 236 251 275 259
226 275 316 19 356 352 348 336 318 311 313 318 334 12 84 112 171 240 260 263 170 124 74 42 26 16 358 13 123 188 198 203 209 225 217 210 224 240 248 168 176 194 218 230 236 240 241 241 243
236 263 311 334 358 359 321 314 319 322 320 335 359 8 12 351 324 284 282 303 74 79 71 46 37 14 2 360 42 351 316 233 208 224 214 194 214 229 226 173 184 209 223 231 241 234 232 228 225
256 282 298 316 351 330 304 309 311 309 318 5 22 16 358 347 348 344 353 21 69 80 76 48 22 35 20 2 17 333 269 262 253 236 237 208 204 222 237 219 226 221 215 209 226 212 219 221 226
280 280 296 305 289 279 301 300 294 318 22 29 22 18 15 16 8 360 14 21 33 68 89 77 25 21 31 7 336 304 293 332 330 3 339 297 240 229 227 224 248 272 288 263 219 237 245 241 231
316 322 303 286 282 340 332 301 298 34 45 39 43 41 34 27 18 9 6 14 10 29 60 60 35 24 14 342 342 347 356 351 315 334 293 276 258 263 243 237 259 251 259 282 287 272 258 252 237
290 282 278 257 87 62 330 336 52 57 59 55 53 50 43 34 28 21 14 13 13 14 27 36 37 14 346 344 2 345 317 311 343 337 320 304 265 226 230 235 252 246 236 239 253 271 285 287 270
248 259 258 120 107 111 306 10 57 62 70 62 55 53 49 39 33 27 22 19 15 11 11 14 16 6 341 341 353 340 330 338 343 325 319 313 306 275 223 235 256 258 247 238 251 252 272 283 284
279 321 351 54 109 43 354 352 63 67 77 68 55 48 49 42 34 29 25 22 19 14 8 3 359 354 337 330 325 305 296 317 315 307 302 297 307 313 291 251 251 262 261 254 265 263 248 261 272
350 338 335 323 44 22 347 353 78 68 72 66 55 43 41 43 35 28 25 23 22 17 11 4 357 351 343 331 326 324 318 306 294 295 300 298 298 296 285 274 265 265 282 283 280 281 277 253 265
321 307 301 309 70 8 314 329 94 80 70 63 55 47 36 39 37 30 25 21 22 19 11 3 358 352 348 340 332 320 310 307 300 281 271 291 290 285 275 285 306 300 300 298 296 305 335 319 344
302 299 317 347 354 332 288 217 100 86 75 66 56 49 37 28 29 26 23 18 21 19 9 358 354 348 344 336 326 310 295 280 279 299 304 298 290 280 270 261 280 283 274 325 332 4 2 313 185
323 3 354 320 316 280 258 150 116 102 91 80 66 52 42 28 21 18 16 10 11 15 5 353 345 345 346 340 330 320 311 300 284 272 261 253 258 268 258 262 281 291 283 285 312 13 356 270 256
317 2 321 301 306 301 314 240 149 127 99 78 64 49 38 27 16 12 10 3 359 360 351 341 340 346 349 346 339 330 316 302 288 272 248 226 224 243 243 232 254 274 270 248 241 231 157 75 333
306 307 284 272 265 274 255 245 168 138 98 68 52 42 30 21 11 5 1 353 344 339 336 334 341 349 349 346 341 332 320 306 296 292 280 247 220 223 222 210 250 263 256 257 262 97 87 92 212
297 295 285 257 219 273 261 204 95 87 76 57 41 32 21 13 3 353 347 341 331 331 334 335 340 346 347 345 340 331 322 313 302 291 286 274 246 222 204 189 219 263 255 239 199 155 182 216 251
351 340 343 359 257 194 4 305 99 99 78 53 33 23 16 6 356 346 343 339 337 337 337 333 331 336 344 345 339 331 324 316 303 292 287 295 291 262 210 172 177 248 242 188 100 89 254 225 202
326 346 11 329 309 316 308 45 121 125 84 50 32 19 9 0 353 347 344 339 337 335 335 332 324 328 346 347 340 333 330 327 316 301 298 325 4 17 16 48 61 21 18 49 68 47 280 254 220
346 15 359 287 279 275 273 103 183 170 47 29 18 12 3 356 351 346 344 341 340 339 338 334 328 337 349 351 345 336 336 333 331 327 318 2 55 45 26 15 14 13 16 18 20 4 310 301 240
8 324 316 307 310 302 297 349 124 47 23 16 11 5 356 349 346 345 344 343 344 342 340 335 335 339 348 358 351 340 335 333 332 333 336 351 33 53 42 18 6 359 357 358 355 330 326 340 327
350 314 314 294 269 274 291 35 87 53 29 14 5 358 350 348 348 347 347 348 345 340 336 331 334 337 351 357 350 340 336 335 335 335 338 346 5 24 32 23 3 334 340 348 348 336 337 337 323
312 338 344 309 292 306 303 280 93 53 32 13 360 353 350 348 347 350 350 346 341 337 334 334 336 342 352 357 350 343 339 337 335 336 341 348 357 9 6 346 326 303 305 327 1 355 4 7 3
Height
1506 1506 1506 1507 1506 1505 1498 1479 1474 1479 1481 1484 1487 1487 1486 1488 1493 1503 1501 1499 1499 1499 1499 1500 1500 1500 1500 1500 1501 1502 1503 1504 1505 1506 1507 1508 1509 1510 1512 1513 1514 1515 1516 1518 1519 1519 1520 1521 1522
1507 1507 1508 1506 1507 1506 1490 1479 1479 1482 1485 1488 1488 1488 1487 1488 1493 1497 1498 1498 1499 1500 1499 1500 1500 1500 1500 1500 1501 1502 1502 1503 1504 1505 1506 1507 1508 1510 1511 1512 1513 1514 1515 1516 1517 1518 1519 1520 1521
1507 1507 1508 1504 1502 1498 1489 1480 1482 1484 1487 1488 1488 1488 1489 1492 1495 1497 1498 1498 1499 1500 1500 1500 1500 1500 1500 1501 1501 1501 1502 1503 1503 1504 1505 1506 1507 1508 1509 1510 1512 1513 1514 1515 1516 1517 1518 1519 1520
1508 1508 1506 1505 1502 1486 1484 1483 1486 1486 1487 1489 1489 1487 1489 1492 1496 1497 1498 1499 1500 1500 1498 1499 1500 1500 1500 1500 1501 1501 1501 1502 1502 1503 1504 1504 1505 1507 1508 1509 1510 1511 1512 1513 1514 1516 1517 1518 1519
1509 1508 1506 1505 1495 1484 1482 1485 1489 1488 1486 1486 1489 1488 1490 1492 1494 1496 1497 1498 1500 1501 1498 1498 1499 1500 1500 1500 1499 1500 1500 1500 1501 1501 1502 1503 1504 1505 1506 1507 1508 1509 1510 1511 1513 1514 1515 1516 1517
1510 1505 1509 1504 1490 1483 1483 1486 1489 1488 1486 1486 1487 1488 1492 1492 1493 1496 1497 1498 1499 1499 1498 1497 1498 1498 1498 1498 1498 1498 1498 1499 1499 1499 1500 1501 1502 1502 1503 1504 1505 1507 1508 1509 1511 1512 1513 1514 1515
1510 1507 1508 1500 1494 1488 1486 1489 1490 1490 1489 1490 1490 1490 1492 1493 1494 1495 1496 1497 1497 1497 1497 1497 1497 1497 1497 1497 1497 1496 1497 1497 1497 1497 1498 1499 1499 1500 1501 1502 1503 1504 1505 1506 1508 1509 1510 1511 1512
1509 1508 1503 1496 1494 1492 1489 1491 1492 1494 1493 1492 1492 1492 1493 1494 1493 1494 1495 1495 1495 1495 1496 1496 1497 1495 1494 1494 1494 1495 1495 1495 1496 1496 1496 1497 1497 1498 1499 1500 1501 1502 1502 1503 1505 1506 1507 1508 1509
1510 1510 1506 1497 1497 1494 1491 1493 1494 1494 1493 1492 1491 1492 1491 1491 1492 1493 1493 1493 1493 1494 1494 1495 1495 1495 1495 1494 1493 1493 1493 1494 1494 1495 1495 1495 1496 1496 1497 1498 1498 1499 1500 1501 1501 1503 1504 1505 1506
1508 1511 1501 1497 1496 1496 1496 1496 1495 1494 1493 1492 1491 1491 1491 1491 1492 1492 1493 1494 1494 1494 1493 1494 1494 1493 1493 1494 1493 1492 1492 1492 1493 1493 1493 1494 1494 1495 1496 1496 1496 1497 1497 1497 1498 1499 1500 1501 1502
1504 1504 1498 1496 1496 1498 1498 1497 1496 1494 1494 1493 1492 1491 1491 1492 1492 1493 1493 1494 1494 1493 1493 1494 1493 1493 1492 1493 1493 1493 1492 1492 1492 1492 1493 1493 1493 1494 1495 1495 1495 1495 1495 1494 1494 1495 1496 1497 1498
1502 1500 1498 1497 1497 1498 1498 1497 1496 1495 1495 1494 1493 1493 1493 1493 1493 1493 1493 1494 1493 1493 1494 1494 1494 1493 1492 1492 1492 1492 1492 1492 1492 1492 1493 1493 1493 1492 1492 1493 1493 1493 1492 1491 1491 1491 1492 1493 1495
1499 1498 1496 1496 1496 1496 1496 1495 1494 1494 1494 1494 1495 1494 1494 1493 1493 1493 1493 1494 1495 1495 1494 1494 1494 1494 1493 1493 1493 1492 1492 1492 1492 1492 1491 1492 1491 1491 1491 1490 1490 1490 1490 1490 1490 1489 1490 1490 1492
1499 1498 1496 1495 1494 1495 1496 1494 1494 1495 1495 1496 1496 1497 1496 1495 1494 1494 1494 1495 1496 1496 1495 1495 1495 1495 1494 1494 1494 1493 1493 1492 1491 1491 1490 1490 1489 1489 1488 1488 1487 1487 1488 1488 1487 1487 1487 1488 1489
1499 1498 1494 1490 1492 1494 1497 1497 1495 1497 1496 1499 1501 1502 1501 1500 1498 1496 1495 1495 1496 1496 1495 1495 1494 1494 1494 1494 1493 1492 1492 1492 1490 1489 1488 1487 1487 1486 1485 1485 1484 1485 1485 1485 1484 1484 1484 1484 1485
1496 1497 1496 1492 1492 1494 1499 1505 1501 1499 1499 1503 1506 1507 1506 1505 1503 1501 1498 1496 1496 1496 1496 1495 1495 1494 1493 1493 1492 1491 1490 1489 1488 1487 1486 1484 1483 1483 1482 1481 1481 1481 1482 1481 1481 1480 1479 1479 1480
1495 1502 1498 1494 1493 1494 1498 1504 1503 1501 1502 1506 1510 1511 1511 1509 1507 1504 1502 1499 1498 1497 1496 1495 1494 1494 1492 1491 1490 1489 1488 1487 1486 1484 1483 1481 1480 1479 1478 1477 1477 1477 1477 1477 1477 1476 1475 1475 1475
1512 1508 1504 1501 1495 1496 1500 1503 1504 1504 1506 1510 1513 1515 1514 1513 1511 1509 1506 1503 1501 1499 1498 1496 1494 1492 1490 1489 1488 1486 1485 1484 1482 1481 1479 1478 1476 1475 1474 1473 1473 1473 1473 1473 1473 1472 1471 1470 1470
1509 1508 1507 1499 1495 1499 1501 1503 1506 1507 1510 1514 1517 1518 1518 1517 1516 1513 1510 1507 1503 1500 1498 1496 1494 1491 1488 1486 1484 1482 1481 1480 1478 1477 1475 1474 1473 1471 1470 1469 1469 1469 1469 1469 1468 1467 1467 1466 1466
1508 1508 1505 1500 1497 1500 1500 1502 1508 1511 1515 1519 1521 1521 1521 1519 1517 1514 1512 1509 1505 1502 1499 1496 1493 1489 1486 1483 1480 1478 1476 1474 1473 1472 1471 1469 1468 1467 1466 1465 1465 1465 1465 1464 1464 1464 1463 1463 1463
1510 1510 1512 1511 1504 1497 1497 1505 1513 1515 1517 1521 1522 1523 1522 1520 1518 1516 1513 1510 1507 1503 1499 1496 1493 1488 1483 1479 1476 1473 1470 1468 1467 1466 1464 1463 1462 1462 1462 1461 1460 1461 1461 1460 1460 1460 1460 1460 1461
1516 1510 1511 1509 1512 1509 1501 1512 1517 1516 1520 1522 1523 1523 1522 1521 1519 1517 1514 1511 1508 1504 1499 1495 1490 1484 1479 1475 1472 1468 1466 1464 1462 1461 1459 1457 1456 1456 1457 1456 1456 1456 1456 1456 1457 1457 1457 1457 1458
1516 1511 1507 1504 1508 1510 1503 1508 1509 1515 1521 1524 1524 1523 1522 1521 1519 1517 1514 1510 1507 1502 1496 1491 1485 1480 1476 1472 1469 1465 1461 1459 1456 1455 1454 1452 1451 1451 1451 1451 1451 1452 1452 1452 1453 1453 1453 1454 1455
1515 1508 1496 1494 1502 1513 1498 1504 1512 1519 1524 1525 1524 1523 1522 1521 1519 1516 1512 1508 1503 1498 1492 1487 1482 1478 1474 1470 1466 1462 1457 1453 1450 1449 1448 1447 1446 1446 1446 1446 1446 1447 1448 1448 1448 1449 1450 1450 1451
1518 1519 1516 1514 1513 1509 1499 1502 1522 1523 1523 1524 1524 1524 1522 1520 1517 1514 1509 1504 1499 1494 1490 1485 1480 1475 1471 1467 1463 1458 1453 1448 1444 1443 1442 1441 1441 1441 1440 1440 1441 1442 1443 1443 1444 1445 1446 1447 1448
1524 1524 1535 1539 1528 1515 1504 1508 1530 1522 1523 1524 1524 1523 1521 1519 1516 1512 1508 1503 1498 1493 1488 1483 1478 1473 1468 1463 1459 1454 1449 1443 1439 1436 1435 1435 1435 1435 1435 1435 1436 1437 1438 1439 1439 1440 1441 1442 1443
1529 1529 1529 1535 1527 1523 1506 1528 1525 1519 1522 1523 1523 1522 1521 1519 1515 1511 1506 1502 1497 1491 1486 1481 1476 1470 1465 1460 1456 1450 1445 1439 1434 1430 1429 1428 1428 1429 1430 1431 1432 1433 1433 1434 1435 1435 1437 1437 1439
1531 1532 1535 1534 1534 1532 1517 1510 1524 1523 1525 1525 1524 1523 1522 1519 1515 1510 1505 1500 1495 1490 1484 1479 1474 1468 1463 1458 1453 1448 1442 1436 1430 1426 1423 1422 1422 1423 1424 1426 1427 1428 1429 1429 1430 1431 1431 1432 1433
1534 1531 1531 1532 1531 1536 1530 1524 1524 1529 1528 1528 1526 1525 1522 1517 1513 1508 1503 1498 1493 1487 1481 1476 1470 1465 1460 1455 1450 1445 1439 1433 1428 1423 1420 1418 1417 1417 1418 1419 1421 1423 1424 1424 1425 1425 1425 1426 1427
1535 1536 1538 1544 1538 1534 1537 1532 1520 1524 1526 1527 1526 1523 1519 1515 1511 1507 1502 1496 1490 1484 1478 1472 1467 1462 1457 1452 1447 1442 1437 1431 1426 1421 1418 1415 1413 1412 1412 1413 1414 1416 1418 1419 1419 1419 1419 1420 1420